This is the latest recevied weather packets stored in our database for station/object AE5TC. If no packets are shown the sender has not sent any weather packets the latest 10 day(s).
| Time | Temp. | Humidity | Pressure | Rain* | Wind** | Luminosity | Snow |
|---|---|---|---|---|---|---|---|
| 1777440050 | 18.33° C | 99% | 1015.7 hPa | 0 mm | - | 0 W/m² | - |
| 1777439745 | 18.33° C | 99% | 1015.8 hPa | 0 mm | - | 0 W/m² | - |
| 1777439441 | 18.33° C | 99% | 1016.1 hPa | 0 mm | - | 0 W/m² | - |
| 1777439136 | 18.33° C | 99% | 1015.8 hPa | 0 mm | - | 0 W/m² | - |
| 1777438834 | 18.33° C | 99% | 1016 hPa | 0 mm | - | 0 W/m² | - |
| 1777438531 | 18.33° C | 99% | 1015.9 hPa | 0 mm | - | 0 W/m² | - |
| 1777438227 | 18.33° C | 99% | 1015.7 hPa | 0 mm | - | 0 W/m² | - |
| 1777437316 | 18.33° C | 99% | 1015.4 hPa | 0 mm | - | 0 W/m² | - |
| 1777437012 | 18.33° C | 99% | 1015.8 hPa | 0 mm | - | 0 W/m² | - |
| 1777436709 | 17.78° C | 99% | 1015.6 hPa | 0 mm | - | 0 W/m² | - |
| 1777436101 | 18.33° C | 99% | 1015.7 hPa | 0 mm | - | 0 W/m² | - |
| 1777435798 | 18.33° C | 99% | 1015.9 hPa | 0 mm | - | 0 W/m² | - |
| 1777435190 | 17.78° C | 99% | 1015.9 hPa | 0 mm | - | 0 W/m² | - |
| 1777434276 | 18.33° C | 99% | 1016.2 hPa | 0 mm | - | 0 W/m² | - |
| 1777433670 | 18.33° C | 99% | 1016.1 hPa | 0 mm | - | 0 W/m² | - |
| 1777433061 | 18.33° C | 99% | 1016 hPa | 0 mm | - | 0 W/m² | - |
| 1777432757 | 18.33° C | 99% | 1016.2 hPa | 0 mm | - | 0 W/m² | - |
| 1777432453 | 18.89° C | 99% | 1016.5 hPa | 0 mm | - | 0 W/m² | - |
| 1777432149 | 18.89° C | 99% | 1016.2 hPa | 0 mm | - | 0 W/m² | - |
| 1777431847 | 18.33° C | 99% | 1016.4 hPa | 0 mm | - | 0 W/m² | - |
| 1777430329 | 18.89° C | 99% | 1016.3 hPa | 0 mm | - | 0 W/m² | - |
| 1777429422 | 18.89° C | 99% | 1016.5 hPa | 0 mm | - | 0 W/m² | - |
| 1777428510 | 19.44° C | 99% | 1016.3 hPa | 0 mm | - | 0 W/m² | - |
| 1777427901 | 19.44° C | 99% | 1016.4 hPa | 0 mm | - | 0 W/m² | - |
| 1777425777 | 20° C | 99% | 1017 hPa | 0 mm | - | 0 W/m² | - |
* Rain latest hour (hover to see other rain measurements)
** Current wind speed in m/s (hover to see current wind gust speed)